Theta_e
300 294 290 294 296 295 297 294 291 292 294 290 288 288 291 294 295 294 294 294 294 293 294 294 294 295 296 296 297 300 303 312 317 312 307 303 299 298 298 298 298 298 299 299
295 290 294 296 297 297 295 295 291 295 295 291 289 287 290 291 292 294 294 293 293 293 292 292 292 293 293 293 294 297 299 301 305 307 305 301 297 297 296 296 296 296 297 297
287 290 296 294 294 294 294 295 290 291 292 292 290 288 288 289 291 292 292 293 293 292 290 290 290 291 291 291 292 294 296 297 298 300 298 297 297 296 294 294 293 294 295 296
288 292 293 292 291 294 290 297 295 292 290 283 292 285 289 288 288 290 290 291 290 290 290 290 289 289 290 290 291 292 293 294 295 296 295 294 292 291 292 292 292 292 293 293
285 288 289 289 290 294 292 298 296 295 291 288 286 286 289 288 286 287 289 290 290 290 289 288 288 289 290 290 290 291 291 291 292 292 293 292 291 291 291 291 290 291 291 292
287 291 291 290 293 294 297 295 295 295 292 283 287 286 287 285 288 289 290 290 290 289 289 289 290 290 289 290 290 290 289 289 290 290 290 290 289 289 288 288 288 289 289 290
288 286 289 292 290 293 292 291 283 282 281 282 288 287 288 291 292 292 290 290 290 290 289 288 288 288 289 289 290 289 288 287 288 288 288 288 287 287 286 286 286 287 287 287
279 278 287 291 290 288 289 291 282 276 278 281 287 284 290 287 288 292 292 290 289 288 289 288 288 288 288 288 288 288 287 286 286 286 286 286 286 286 285 285 285 286 287 287
280 279 287 288 291 292 288 286 290 282 278 281 286 287 286 286 287 289 288 288 288 288 288 287 287 287 287 287 287 287 286 286 285 285 284 284 284 284 283 284 284 285 286 287
283 277 286 288 291 292 291 293 285 284 277 275 280 281 284 282 284 287 287 287 287 287 287 286 286 286 286 286 286 286 286 284 284 284 284 283 283 283 283 283 282 283 284 285
289 284 282 286 285 285 288 288 287 286 283 278 275 280 285 286 287 287 288 288 287 286 286 285 285 286 285 285 285 285 285 284 284 283 283 282 282 282 282 282 282 282 283 284
289 286 276 283 284 285 288 288 287 282 279 280 280 280 284 284 288 289 288 288 287 286 286 285 285 284 284 284 284 284 284 283 283 283 282 281 281 281 281 281 281 282 281 282
290 284 276 276 284 287 284 286 288 286 284 280 279 281 284 285 286 288 286 286 286 286 285 285 284 283 283 283 283 283 283 283 283 282 281 280 280 280 280 280 280 281 280 280
290 284 280 275 277 281 282 284 287 286 282 279 281 282 281 282 284 285 286 286 286 285 285 284 284 284 284 283 283 283 282 283 282 282 281 280 280 280 280 280 280 280 280 279
286 272 281 281 281 282 282 285 285 286 283 283 282 282 285 284 284 285 286 286 285 284 284 284 284 284 284 283 282 282 282 282 281 280 280 279 280 279 280 280 279 279 279 278
286 277 278 279 281 284 282 283 286 285 284 282 282 282 283 284 284 284 285 285 284 284 285 285 285 284 283 283 282 282 281 281 281 280 280 279 279 279 279 279 279 278 277 277
281 277 277 275 279 278 278 280 282 282 281 281 279 283 281 280 282 284 285 286 285 285 285 285 285 285 284 283 283 282 281 281 280 280 280 279 278 278 279 279 278 277 276 276
279 275 271 272 276 272 277 277 278 281 283 281 282 281 281 281 281 283 285 286 285 285 285 285 285 285 284 283 282 282 281 280 279 279 278 278 277 277 277 277 277 276 275 275
283 279 272 272 272 272 274 276 279 280 281 283 283 281 280 280 280 279 283 286 287 286 286 286 285 284 283 282 281 280 279 278 278 277 277 277 276 276 276 276 275 275 274 274
279 277 276 267 269 266 275 279 279 280 276 282 283 281 279 281 279 281 282 283 284 284 283 283 283 283 281 280 279 278 278 277 276 276 277 276 276 276 275 275 275 274 274 274
270 272 268 263 265 271 277 279 279 275 278 280 282 280 279 280 282 283 283 282 283 282 282 282 281 282 281 279 277 277 276 276 277 277 276 275 275 274 275 274 273 272 272 272
271 268 263 256 262 267 277 277 279 282 279 279 280 281 280 280 280 280 281 281 281 281 282 281 280 280 278 278 276 276 276 277 276 275 274 273 272 273 274 270 270 270 269 269
266 271 268 270 272 278 277 278 279 280 279 279 279 281 281 280 279 280 280 280 281 281 281 280 279 279 277 276 276 276 276 276 275 272 271 270 270 271 271 269 269 269 268 268
270 273 270 272 275 276 278 278 279 279 279 280 280 280 280 280 279 280 280 280 280 279 280 278 276 275 277 274 275 276 274 273 270 270 270 269 268 269 268 270 270 268 268 267
272 273 271 271 275 276 278 278 280 280 280 279 279 280 280 280 279 279 279 279 279 279 278 276 276 275 276 273 273 271 272 270 271 270 269 270 270 268 269 269 269 269 269 269
273 273 271 271 276 277 277 276 279 280 279 280 280 278 278 279 280 279 279 278 278 278 276 273 273 271 273 270 272 269 269 270 270 270 270 270 269 268 268 268 268 273 274 275
Wind_Speed
3 5 14 21 21 21 5 4 6 3 4 6 4 8 6 6 8 9 6 6 6 6 4 7 8 7 7 10 10 11 10 9 7 7 7 7 8 8 9 8 13 12 11 13
4 10 5 8 7 12 17 9 4 3 7 6 3 7 3 2 3 4 8 5 5 5 5 8 8 9 10 9 10 11 11 10 8 5 6 5 7 8 8 8 11 12 12 12
4 3 8 5 7 11 13 12 7 6 7 6 5 3 4 1 2 3 4 5 4 6 5 7 8 8 9 10 11 10 10 11 9 9 9 8 6 5 5 8 8 10 12 12
5 3 4 9 7 8 9 1 12 15 7 4 3 6 6 7 5 4 6 6 6 8 5 6 6 8 9 9 10 11 11 11 11 9 10 11 7 6 4 6 6 7 11 12
5 4 6 7 6 7 4 11 11 11 10 5 5 4 2 13 9 10 9 7 8 7 7 8 7 7 7 8 8 9 12 13 12 11 11 9 11 7 6 5 8 9 9 11
5 3 4 8 7 9 5 6 10 9 6 5 9 9 4 8 11 10 8 10 11 10 9 9 7 8 8 7 8 9 12 12 11 11 11 11 11 8 7 6 6 6 6 7
3 4 3 3 5 5 5 9 2 4 5 3 7 10 7 6 6 17 20 17 13 11 11 11 10 7 8 9 8 9 11 11 10 11 12 10 10 9 9 6 6 6 6 6
5 4 8 5 7 6 14 10 6 7 6 6 5 5 4 2 4 9 16 16 13 12 9 8 9 9 8 10 10 9 9 9 9 9 10 9 8 6 6 6 6 5 5 5
5 4 1 2 3 4 8 10 6 7 2 4 4 1 3 1 4 11 15 17 16 13 11 10 9 8 8 8 8 9 10 8 8 8 7 8 7 7 7 6 6 4 4 4
5 1 2 3 1 1 6 8 2 1 6 4 3 4 6 3 8 11 15 17 15 14 13 10 8 8 5 8 8 7 8 8 7 7 6 6 6 6 6 5 5 5 4 5
3 2 3 3 5 6 4 5 2 4 1 4 3 5 3 9 15 21 20 18 17 15 14 11 9 8 7 6 7 7 6 7 6 6 6 6 5 5 5 4 4 3 4 4
5 2 4 3 5 3 3 6 5 4 3 1 1 5 1 5 10 10 12 11 12 14 12 10 9 7 7 6 6 6 5 6 5 5 6 5 4 4 4 3 3 3 4 4
8 5 3 2 1 3 4 4 6 6 2 4 4 5 3 3 10 10 13 12 12 12 12 10 8 7 7 6 5 5 5 5 5 5 5 4 4 3 3 3 3 4 4 3
2 2 3 5 2 2 5 4 5 6 3 5 5 2 2 5 7 12 14 15 15 15 14 12 10 9 7 6 6 6 5 4 4 4 4 4 3 3 2 3 3 3 3 2
2 3 1 1 2 2 2 13 10 13 4 7 4 6 5 11 13 14 13 13 13 14 13 12 11 8 7 6 6 5 5 5 5 5 4 4 3 2 2 2 2 2 1 0
2 1 1 1 4 3 3 4 12 9 8 4 5 7 1 4 10 10 16 18 18 17 15 12 9 7 8 8 7 6 5 5 5 4 4 3 3 2 2 2 2 1 1 2
2 2 1 2 1 1 3 8 10 5 4 9 7 7 6 4 9 16 17 17 16 16 14 14 13 10 9 9 7 7 6 5 5 4 4 4 3 3 3 3 3 3 2 2
2 2 1 3 2 3 4 1 1 1 3 4 2 2 4 1 2 6 7 13 12 13 14 12 9 8 7 6 6 5 5 5 5 4 5 5 4 3 3 3 4 3 2 3
3 1 2 2 2 3 3 3 5 6 6 6 5 4 3 4 4 1 8 10 16 15 11 10 8 6 7 7 6 6 5 5 5 6 5 5 5 5 4 4 4 4 3 3
3 5 1 1 4 4 2 1 1 1 4 7 6 7 8 6 3 6 11 8 8 9 8 9 8 6 7 7 7 6 5 6 7 7 6 5 5 5 5 5 4 3 3 3
3 3 0 2 1 7 4 3 1 6 6 3 4 5 9 6 4 3 12 8 7 7 9 8 7 9 7 6 7 7 7 8 6 5 5 5 5 6 5 4 3 3 3 3
4 5 3 2 4 3 5 2 5 3 1 0 3 5 7 1 3 4 6 8 9 9 8 8 8 7 6 7 7 6 8 5 6 5 5 5 5 4 4 5 3 3 3 3
2 5 3 7 7 3 4 2 1 2 2 2 3 4 7 5 2 6 6 8 7 9 7 6 7 7 6 6 7 7 6 6 5 4 6 4 4 4 4 4 4 3 4 4
5 3 3 4 3 7 8 4 5 3 3 2 3 6 7 6 7 7 8 7 7 7 7 6 6 5 7 7 7 9 5 4 5 6 5 4 5 5 4 4 4 4 4 4
4 5 5 6 9 5 10 9 7 8 5 2 2 6 7 7 6 5 6 7 7 7 5 5 7 7 8 5 7 6 6 5 5 5 4 5 4 5 5 6 5 6 5 5
8 9 7 8 8 4 4 1 7 8 7 6 6 4 4 5 9 7 8 7 7 7 5 4 5 4 7 5 7 5 5 7 6 6 5 5 5 5 5 5 4 10 12 12
Wind_Direction
204 176 200 196 200 222 272 151 122 50 33 77 74 119 140 135 132 134 137 119 104 80 44 49 40 36 44 35 40 39 45 44 96 105 103 89 80 68 57 48 46 44 46 47
161 217 144 113 131 197 264 209 123 108 39 81 133 102 123 128 117 158 145 140 127 114 74 56 40 45 49 45 50 43 54 49 61 77 99 101 97 76 73 63 49 38 42 44
154 198 154 137 158 181 216 217 164 141 101 73 148 87 183 76 119 129 124 126 124 111 107 70 57 41 47 49 52 60 64 66 61 84 99 98 92 83 64 45 50 36 38 41
223 258 151 180 195 187 201 248 168 139 119 159 351 211 209 177 182 191 170 159 140 112 96 88 72 58 55 39 61 65 61 67 64 74 79 78 88 93 70 72 63 52 42 45
240 177 163 179 216 166 210 156 210 157 142 139 197 291 155 153 202 203 197 170 151 143 135 111 91 78 63 58 59 69 70 62 58 60 76 87 87 88 86 72 67 50 45 47
206 299 196 191 183 203 150 118 182 190 173 220 173 179 213 200 195 188 167 180 163 154 146 131 123 112 89 71 65 68 71 64 61 67 70 80 89 90 82 65 68 53 48 43
157 264 278 173 138 158 237 152 187 209 195 189 159 181 249 179 201 189 176 170 166 163 159 152 138 124 109 89 80 78 73 71 67 70 70 75 80 81 78 68 64 58 48 41
177 208 176 218 203 164 212 173 160 190 181 202 162 224 242 291 340 150 153 154 153 152 155 158 137 133 127 113 97 98 91 85 74 74 76 73 77 80 77 69 73 64 68 57
184 250 300 174 224 149 172 230 147 109 27 99 189 295 274 355 114 141 149 150 163 160 150 147 141 135 122 109 105 111 108 100 91 91 90 82 79 79 80 75 75 74 58 71
203 311 302 210 100 360 192 154 126 29 150 171 217 269 234 217 173 162 164 167 167 159 150 150 152 135 137 114 119 111 107 111 106 100 95 88 83 82 83 80 74 68 62 59
114 179 295 140 206 185 145 174 127 111 102 153 153 247 196 205 184 180 180 177 165 157 152 154 154 150 135 123 125 120 118 113 107 103 100 96 90 86 84 85 79 74 73 62
155 204 204 221 302 279 286 166 153 169 206 360 74 265 147 244 176 172 172 156 151 149 152 152 153 157 146 141 138 133 135 128 128 118 102 99 105 106 104 97 86 81 73 61
146 205 132 339 353 336 218 214 133 101 82 183 178 243 360 163 145 157 145 147 149 150 151 151 158 173 158 157 145 149 158 148 136 127 130 134 136 131 116 104 85 73 70 61
67 212 180 210 200 122 170 157 158 121 151 158 219 252 210 170 160 159 161 160 160 162 166 170 175 177 165 158 158 169 165 154 151 148 155 156 153 146 135 118 97 88 72 55
40 174 229 218 179 318 168 172 159 185 156 187 205 207 213 191 185 173 158 152 157 164 172 181 181 177 166 161 172 176 172 169 165 168 165 172 157 146 134 115 107 87 73 46
26 335 20 297 349 69 23 194 194 176 174 172 213 247 73 128 125 163 170 166 172 176 179 181 176 169 173 179 185 178 177 182 176 177 184 171 175 172 168 174 175 188 235 345
346 133 186 253 4 11 315 217 201 185 181 150 181 208 156 169 185 184 181 177 173 175 175 180 183 182 184 185 175 185 183 170 181 185 186 191 194 206 204 203 218 231 279 323
333 98 92 165 192 171 253 333 107 202 212 185 94 147 173 163 34 142 167 173 168 171 178 183 175 179 176 164 169 157 167 180 186 198 200 200 202 222 222 219 231 225 240 255
341 124 93 147 208 304 339 213 174 159 246 198 175 137 115 116 90 280 182 176 180 180 177 184 170 152 152 166 165 166 176 180 196 215 217 211 203 217 219 223 225 221 227 248
86 48 66 116 139 193 262 152 276 277 323 196 187 175 156 159 143 240 179 147 146 159 160 156 144 136 154 175 163 167 186 199 217 219 220 210 201 211 219 220 217 211 220 256
20 7 167 188 185 293 237 215 203 99 232 175 184 167 163 186 202 296 152 153 148 147 144 134 149 167 178 155 154 192 202 221 221 217 212 209 207 211 213 199 189 199 231 265
184 160 219 62 59 306 184 85 176 202 192 38 183 184 186 150 32 106 121 130 131 134 136 153 156 172 167 170 172 204 222 220 212 206 212 214 199 199 187 190 201 210 226 250
302 184 194 176 217 300 215 231 213 167 174 196 200 181 168 152 156 138 136 140 147 157 157 157 163 177 188 188 186 209 236 201 208 182 217 210 198 201 186 192 214 224 222 232
238 187 203 29 245 232 238 239 235 213 241 271 204 159 164 161 163 155 156 163 160 159 167 161 161 186 218 202 204 222 195 192 172 211 219 201 203 207 210 214 210 212 220 231
205 130 184 264 273 291 265 232 212 211 225 215 131 183 184 158 172 156 155 164 174 172 166 167 188 206 230 195 223 211 211 176 207 220 208 215 206 205 215 218 208 217 215 204
187 188 174 219 220 166 245 211 189 194 196 188 160 129 139 158 170 161 182 183 174 184 179 194 212 207 238 216 245 210 200 185 205 225 212 213 208 206 215 220 243 248 244 242